Voltar ao catálogo

NIGHTJAR

AtivoCiênciaSSO
NORAD 60535·PAYLOAD·🇹🇼 Taiwan

Lançado Aug 16, 2024 de Vandenberg Space Force Base

Loading…

Próximas Passagens (próximas 24 horas)

TLE

AtualizadoSource: Space-Track

Época: Sep 14, 2026, 03:48 UTC

1 60535U 24149BV  26257.15902361  .00002874  00000-0  23922-3 0  9990
2 60535  97.6775 332.6171 0003531 117.2275 242.9309 14.99451015156204

Acompanhe NIGHTJAR em tempo real com AllMySat

Download on the App Store